www.pogodaiklimat.ru

Погода и климат >> Архив погоды >> Аргентина >> Маркос Хуарес


ПОГОДА в Маркос Хуарес

  • Прогноз погоды в Маркос Хуарес
  • Монитор погоды в Маркос Хуарес

АРХИВ ПОГОДЫ в Маркос Хуарес

Время (UTC), дата Ветер
(напр.,м/с)
 
Видим.   Явления Облачность Т
(С)
Тd
(С)
f
(%)
Тe
(С)
Тes
(С)
Комфортность P
(гПа)
Po
(гПа)
Тmin
(С)
Tmax
(С)
R
(мм)
R24
(мм)
S
(см)
00 14.06 ЮЗ 8 5000 м слаб. морось {туман} 10/10 300 м
[St]
+14.2 +13.5 96 +12 +12 1011.6 998.0 +14.2 +17.8 0.0
03 14.06 Ю 6 5000 м в посл. час морось туман 10/10 300 м
[St]
+13.6 +13.2 97 +11 +11 1013.8 1000.2
06 14.06 Ю 6 20 км {морось} 10/10 300 м
[St]
+13.4 +12.7 96 +11 +11 1015.0 1001.4 0.0
09 14.06 Ю 6 20 км 10/10 300 м
[St]
+13.1 +12.6 97 +11 +11 1016.1 1002.4
12 14.06 Ю 6 20 км 9/9 570 м
[Sc]
+11.8 +10.7 93 +9 +9 1017.9 1004.1 +10.5 +14.2 0.0
15 14.06 Ю 6 10 км слаб. морось 10/10 540 м
[Frnb]
+11.6 +10.4 92 +9 +9 1018.6 1004.9
18 14.06 Ю 6 20 км {морось} 10/10 900 м
[Sc]
+12.3 +9.4 82 +10 +10 1017.1 1003.4 0.0
21 14.06 Ю 5 20 км 10/10 900 м
[Sc]
+11.0 +9.0 87 +8 +8 1017.2 1003.4
00 15.06 ЮВ 5 20 км 10/10 600 м
[Sc]
+10.6 +9.0 90 +8 +8 1013.5 999.7 +10.5 +12.5
03 15.06 Ю 4 20 км 10/10 600 м
[Sc]
+10.6 +9.0 90 +8 +8 1019.5 1005.7
06 15.06 ЮВ 5 20 км 10/8 600 м
[Sc Ac As]
+10.8 +9.2 90 +8 +8 1018.3 1004.5
09 15.06 ЮЗ 5 10 км в посл. час гроза {дождь} туман 10/8 600 м
[Sc As op]
+10.4 +10.0 97 +7 +7 1017.6 1003.7
12 15.06 Ю 8 5000 м слаб. дождь {гроза} 10/8 540 м
[St As op]
+10.6 +10.2 97 +7 +7 1019.1 1005.2 +10.4 +11.0 5
15 15.06 Ю 8 5000 м слаб. дождь 10/8 540 м
[Frnb As op]
+9.6 +9.6 100 +5 +5 1019.8 1005.8
18 15.06 Ю 7 5000 м слаб. дождь 10/8 540 м
[Frnb As op]
+9.4 +9.2 99 +5 +5 1018.3 1004.4 1
21 15.06 Ю 7 4000 м слаб. дождь 10/8 540 м
[St As op]
+10.0 +10.0 100 +6 +6 1019.4 1005.6
00 16.06 Ю 8 6000 м слаб. дождь 10/8 300 м
[St As op]
+9.2 +8.8 97 +5 +5 1019.6 1005.7 +9.2 +10.6 0.8
03 16.06 Ю 7 2000 м гроза, ливневой дождь 10/9 300 м
[Cb cap As op]
+9.4 +9.4 100 +5 +5 1020.0 1006.1
06 16.06 ЮЗ 9 4000 м слаб. дождь {гроза} 10/9 240 м
[St As op]
+9.4 +9.2 99 +5 +5 1020.3 1006.4 1
09 16.06 Ю 8 5000 м слаб. дождь 10/9 270 м
[St As op]
+8.9 +8.7 99 +4 +4 1019.8 1005.8
12 16.06 Ю 8 20 км {дождь, морось} 10/9 450 м
[St As op]
+9.0 +8.4 96 +4 +4 1021.1 1007.2 +8.5 +9.4 0.0
15 16.06 Ю 9 8000 м слаб. морось 10/9 450 м
[St As op]
+10.3 +9.3 94 +6 +6 1022.4 1008.5
18 16.06 ЮЗ 7 20 км 10/9 450 м
[St As op]
+9.8 +8.8 93 +6 +6 1020.5 1006.6 0.0
21 16.06 ЮЗ 8 20 км 10/8 450 м
[St As op]
+9.9 +8.7 92 +6 +6 1020.3 1006.4
00 17.06 З 6 20 км 10/8 450 м
[St As op]
+9.5 +8.7 95 +6 +6 1022.4 1008.4 +9.0 +10.4
03 17.06 З 4 15 км слаб. морось 10/10 420 м
[St]
+9.0 +8.8 99 +6 +6 1021.3 1007.3
06 17.06 З 3 20 км в посл. час морось 10/5 500 м
[St Ac As]
+8.9 +8.1 95 +6 +6 1021.3 1007.4 0.0
09 17.06 З 3 20 км 10/5 450 м
[St Ac As]
+9.0 +8.0 93 +7 +7 1019.6 1005.7
12 17.06 СЗ 1 20 км гроза без осадков 10/8 330 м
[Cb cap As op]
+8.8 +8.0 95 +9 +9 1020.0 1006.0 +8.5 +9.9 0.0
15 17.06 СЗ 2 20 км в посл. час дождь {гроза} 10/6 450 м
[St Ac As]
+10.4 +8.8 90 +9 +10 1020.1 1006.2
18 17.06 ЮЗ 1 20 км {гроза, дождь} 10/4 450 м
[Sc Ac As]
+12.2 +8.6 79 +12 +13 1017.2 1003.4 8
21 17.06 В 1 20 км 10/6 450 м
[St Ac As]
+11.6 +9.2 85 +11 +11 1015.1 1001.3
00 18.06 С 3 15 км в посл. час морось 10/10 450 м
[St]
+10.1 +9.3 95 +8 +8 1016.6 1002.8 +8.8 +12.4 0.2
03 18.06 СЗ 2 8000 м слаб. морось 10/10 450 м
[St]
+9.9 +9.5 97 +9 +9 1016.6 1002.8
06 18.06 З 4 4000 м слаб. дождь {морось} туман 10/8 450 м
[St As op]
+9.9 +9.5 97 +7 +7 1015.8 1002.0 2
09 18.06 З 4 20 км {дождь} 6/4 450 м
[St As op]
+9.1 +8.7 97 +6 +6 1015.2 1001.3
12 18.06 З 4 20 км {дождь} 5/0
[Ac As]
+8.8 +6.7 87 +6 +6 1016.4 1002.5 +8.0 +10.1 1
15 18.06 З 6 20 км ясно +13.8 +5.9 59 +12 +14 1016.5 1002.8
18 18.06 З 9 20 км ясно +17.1 +2.5 38 +16 +16 1014.3 1000.6
21 18.06 З 3 20 км ясно +14.0 +5.4 56 +13 +13 1014.1 1000.4
00 19.06 СЗ 3 20 км ясно +7.9 +4.5 79 +5 +5 1015.7 1001.7 +7.9 +17.2
03 19.06 СЗ 5 20 км ясно +7.9 +5.0 82 +4 +4 1017.5 1003.7
06 19.06 З 5 20 км ясно +6.6 +3.8 82 +2 +2 1018.3 1004.5
09 19.06 З 5 20 км ясно +5.9 +2.8 80 +2 +2 1018.6 1004.8
12 19.06 З 5 20 км ясно +6.2 +1.8 73 +2 +2 1020.0 1006.0 +5.2 +8.2
15 19.06 ЮЗ 9 20 км ясно +15.0 +2.1 42 +13 +14 1022.2 1008.4
18 19.06 ЮЗ 10 20 км 1/0
[Ac As]
+18.4 +0.4 30 +17 +18 1020.3 1006.5
21 19.06 ЮЗ 2 20 км ясно +15.6 +4.6 48 +16 +16 1021.6 1007.7
00 20.06 штиль 0 20 км ясно +8.0 +3.6 74 +7 +7 1021.8 1007.7 +6.2 +18.6
03 20.06 С 2 20 км ясно +5.8 +2.4 79 +4 +4 1022.9 1008.9
06 20.06 СЗ 2 20 км ясно +3.8 +2.0 88 +1 +1 1023.3 1009.4
09 20.06 С 2 20 км ясно +2.0 +0.9 92 -1 -1 1023.6 1009.6
12 20.06 СВ 3 20 км 8/0
[As trans Cs]
+2.9 +1.4 90 -1 -1 1022.8 1008.6 +1.7 +8.0
15 20.06 С 8 20 км 9/0
[As trans Cs]
+14.4 +5.4 55 +12 +13 1022.1 1008.2
18 20.06 С 6 20 км 5/0
[As trans Cs]
+21.0 +4.6 34 +22 +23 комфорт 1023.5 1009.7
21 20.06 С 5 20 км 6/0
[Ac As Cs]
+14.7 +7.3 61 +13 +13 1021.1 1007.0

 

Местоположение метеостанции Маркос Хуарес (Аргентина): широта -32.70 долгота -62.15 высота над уровнем моря 114 м.

В архиве по умолчанию представлена погода в Маркос Хуарес за последнюю неделю. Архивные данные за месяц целиком и за предыдущие месяцы, начиная с января 2011 года, Вы можете получить, выбрав интересующий диапазон дат из раскрывающегося списка и нажав кнопку "Ввод!".


*Определитесь, кто Вы:
робот инопланетянин человек

Внимание! Время в таблицах - всемирное. Для получения местного времени необходимо прибавить поправку, которая равна -3 ч.

Смотрите также архив погоды в соседних городах и на ближайших метеорологических станциях:

Погода в Росарио (Аргентина) (130 км)
Погода в Санта-Фе (Аргентина) (168 км)
Погода в Паране (Аргентина) (187 км)
Погода в Лабоулайе (Аргентина) (195 км)
Погода в Пиларе (Аргентина) (200 км)
Погода в Рио-Куарто (Аргентина) (203 км)
Погода в Хунине (Аргентина) (236 км)
Погода в Кордове (Аргентина) (248 км)
Погода в Вилла Долорес (Аргентина) (292 км)
Погода в Сересе (Аргентина) (314 км)

Пояснения к столбцам:

Ветер - указаны скорость ветра в м/с - средняя за 10 мин, порывы в срок и между сроками (в фигурных скобках) и направление, откуда дует ветер: С - северный, СВ - северо-восточный, В - восточный, ЮВ - юго-восточный, Ю - южный, ЮЗ - юго-западный, З - западный, СЗ - северо-западный.
Видимость - горизонтальная дальность видимости в метрах или километрах. При видимости от 1 до 10 км при отсутствии осадков обычно наблюдается дымка, при ухудшении видимости до 1 км и менее - туман. В сухую погоду видимость может ухудшаться дымом, пылью или мглою.
Явления - указаны атмосферные явления, наблюдавшиеся в срок или в последний час перед сроком; фигурными скобками обозначены явления, наблюдавшиеся между сроками (за 1-3 часа до срока); квадратными скобками обозначены град или гололедные отложения с указанием их диаметра в мм.
Облачность - указаны через наклонную черту общая и нижняя облачность в баллах и высота нижней границы облаков в метрах; квадратными скобками обозначены формы облаков: Ci - перистые, Cs - перисто-слоистые, Cc - перисто-кучевые, Ac - высококучевые, As - высокослоистые, Sc - слоисто-кучевые, Ns - слоисто-дождевые, Cu - кучевые, Cb - кучево-дождевые. Подробнее классификацию облаков см. в Атласе облаков (PDF).
T - Температура воздуха - температура, измеренная на высоте 2 м над землей.
Td - Температура точки росы - температура, при понижении до которой содержащийся в воздухе водяной пар достигнет насыщения.
f - Относительная влажность воздуха - влажноcть воздуха, измеренная на высоте 2 м над землей.
Te - Эффективная температура - температура, которую ощущает одетый по сезону человек в тени. Характеристика душности погоды. При расчете учитывается влияние влажности воздуха и скорости ветра на теплоощущения человека.
Tes - Эффективная температура на солнце - температура, которую ощущает человек, с поправкой на солнечный нагрев. Характеристика знойности погоды. Зависит от высоты солнца над горизонтом, облачности и скорости ветра. Ночью, в пасмурную погоду, а также при ветре 12 м/с и более поправка равна нулю.
P - Атмосферное давление - приведенное к уровню моря атмосферное давление.
Po - Атмосферное давление - измеренное на уровне метеостанции атмосферное давление.
Tmin - Минимальная температура - минимум температуры воздуха на высоте 2 м над землей.
Tmax - Максимальная температура - максимум температуры воздуха на высоте 2 м над землей.
R - Количество осадков - Количество выпавших осадков за период времени, мм. При наведении курсора мыши на число - период времени, за который выпало указанное количество осадков.
R24 - Количество осадков - Количество выпавших осадков за 24 часа, мм.
S - Снежный покров - Высота снежного покрова, см. При наведении курсора мыши на число - состояние снежного покрова и степень покрытия местности в баллах.